[[{"header":{"parameterUnit":"m.s-1","parameterCategory":1,"la1":30.2991,"la2":30.254,"lo1":-89.0895,"lo2":-89.0444,"dy":0.0017,"dx":0.0017,"nx":28,"ny":28,"refTime":"2025-01-04T09:00:00:Z","depth":0,"parameterNumber":2,"parameterNumberName":"U-component_of_WINDS"},"data":[0,0,0,0,0,0,0,0,0,0,0,0,0,0,0,0,0,0,0,0,0,0,0,0,0,0,0,0,0,0,0,0,0,0,0,0,0,0,0,0,0,0,0,0,0,0,0,0,0,0,0,0,0,0,0,0,0,0,-5.6259,-5.6259,0,-5.6298,-5.6298,-5.6299,-5.6259,-5.6257,-5.6256,-5.6254,-5.6291,-5.6293,-5.6296,0,0,0,0,0,0,0,0,0,0,0,0,0,-5.6149,-5.6151,-5.6259,-5.6259,-5.626,-5.6298,-5.6298,-5.6299,-5.6259,-5.6257,-5.6255,-5.6254,-5.629,-5.6293,-5.6296,0,0,0,0,0,0,0,0,0,0,0,0,0,-5.6193,-5.6152,-5.6259,-5.6245,-5.6244,-5.6298,-5.6298,-5.6299,-5.626,-5.6257,-5.6255,-5.6253,-5.6289,-5.6293,-5.6296,-5.6365,0,0,-5.6308,-5.6309,0,0,0,0,0,0,0,0,-5.619,-5.6197,-5.6246,-5.6246,-5.6245,-5.6271,-5.6273,-5.6321,-5.626,-5.6254,-5.6254,-5.6252,-5.6286,-5.629,-5.6302,-5.6367,-5.6368,-5.6308,-5.631,-5.6312,-5.6313,0,0,0,0,0,0,0,-5.6187,-5.6195,-5.6274,-5.6247,-5.6246,-5.6236,-5.624,-5.6282,-5.6282,-5.6254,-5.6251,-5.6256,-5.6285,-5.6299,-5.6303,-5.6369,-5.6308,-5.6311,-5.6313,-5.6315,-5.6492,-5.6494,0,0,0,0,0,0,-5.6186,-5.6193,-5.6273,-5.6275,-5.6212,-5.624,-5.6244,-5.6265,-5.6282,-5.6282,-5.6258,-5.6254,-5.6294,-5.6299,-5.6304,-5.6384,-5.6312,-5.6315,-5.6317,-5.6489,-5.6492,-5.6495,0,0,0,0,0,0,-5.6184,-5.6194,-5.6271,-5.6233,-5.6243,-5.6244,-5.6268,-5.6267,-5.628,-5.6285,-5.6285,-5.6272,-5.6292,-5.6299,-5.635,-5.6385,-5.6317,-5.632,-5.6486,-5.649,-5.6494,-5.6546,0,0,0,0,0,0,-5.6181,-5.6193,-5.6219,-5.6234,-5.6245,-5.6318,-5.627,-5.6269,-5.6287,-5.6282,-5.6298,-5.6298,-5.6291,-5.6345,-5.6354,-5.6388,-5.6323,-5.6483,-5.6488,-5.6493,-5.6541,-5.6551,-5.6559,0,0,0,0,0,-5.6177,-5.6232,-5.6221,-5.6231,-5.6278,-5.632,-5.6326,-5.6317,-5.629,-5.6316,-5.632,-5.6298,-5.6381,-5.6351,-5.636,-5.6396,-5.6481,-5.6487,-5.6492,-5.6537,-5.6549,-5.6559,0,0,0,0,0,0,-5.6219,-5.6233,-5.6221,-5.6283,-5.6301,-5.6313,-5.6345,-5.633,-5.6355,-5.6349,-5.6337,-5.6341,-5.6395,-5.6402,-5.6368,-5.6464,-5.6426,-5.6434,-5.6457,-5.6468,-5.6477,-5.6473,-5.6326,0,0,0,0,0,-5.6236,-5.627,-5.628,-5.6333,-5.6343,-5.6343,-5.6361,-5.6353,-5.6371,-5.6377,-5.6384,-5.6401,-5.6431,-5.6451,-5.6479,-5.6543,-5.6545,-5.6573,-5.6582,-5.659,-5.6595,-5.6629,-5.6641,-5.6514,-5.6514,-5.6514,0,0,-5.627,-5.6282,-5.6304,-5.6342,-5.6355,-5.6389,-5.6349,-5.6387,-5.6412,-5.6383,-5.6431,-5.6438,-5.6456,-5.6514,-5.654,-5.6521,-5.6632,-5.6597,-5.6603,-5.6605,-5.6636,-5.6648,-5.6659,-5.6518,-5.6517,-5.6516,0,0,-5.6349,-5.6363,-5.6408,-5.6422,-5.6443,-5.6443,-5.6454,-5.647,-5.6473,-5.6522,-5.6501,-5.6531,-5.6583,-5.6596,-5.661,-5.6698,-5.6678,-5.6707,-5.6754,-5.6787,-5.6797,-5.6805,-5.6834,-5.6845,-5.6714,-5.6714,-5.6714,0,-5.6388,-5.6439,-5.6432,-5.6472,-5.6489,-5.6467,-5.6512,-5.6526,-5.6554,-5.6566,-5.6546,-5.6611,-5.6622,-5.6682,-5.6704,-5.6717,-5.6728,-5.6703,-5.6796,-5.6805,-5.6813,-5.684,-5.6851,-5.6717,-5.6717,-5.6717,-5.6716,0,-5.6485,-5.6522,-5.6556,-5.6585,-5.6606,-5.6648,-5.6648,-5.667,-5.6662,-5.6664,-5.6715,-5.6728,-5.6757,-5.6772,-5.6764,-5.6832,-5.6819,-5.6798,-5.6759,-5.6828,-5.6854,-5.6864,-5.6722,-5.6721,-5.672,-5.6719,0,0,-5.6587,-5.6614,-5.6626,-5.6639,-5.6662,-5.6689,-5.6732,-5.6762,-5.6781,-5.6803,-5.6836,-5.6882,-5.6863,-5.6879,-5.6872,-5.6902,-5.6968,-5.6876,-5.6877,-5.689,-5.7042,-5.7055,-5.7067,-5.6957,-5.6959,-5.6961,-5.7039,0,-5.6664,-5.6736,-5.6733,-5.6801,-5.6833,-5.6815,-5.6851,-5.6869,-5.6873,-5.6901,-5.6906,-5.6937,-5.6911,-5.692,-5.6949,-5.6954,-5.6997,-5.6949,-5.6986,-5.6987,-5.6978,-5.7081,-5.7095,-5.7168,-5.7049,-5.7051,-5.7052,0,-5.6762,-5.6788,-5.686,-5.6878,-5.6892,-5.6924,-5.6952,-5.698,-5.7,-5.7001,-5.7021,-5.701,-5.7052,-5.7016,-5.7072,-5.7039,-5.7055,-5.706,-5.7063,-5.7062,-5.7021,-5.708,-5.7191,-5.7201,-5.7068,-5.7067,-5.7066,0,-5.6826,-5.6879,-5.6928,-5.6941,-5.6964,-5.6987,-5.6998,-5.7016,-5.7035,-5.706,-5.7072,-5.7102,-5.7117,-5.714,-5.7137,-5.7112,-5.7194,-5.7158,-5.7194,-5.7194,-5.7209,-5.7207,-5.732,-5.7226,-5.7226,-5.7225,-5.7225,0,-5.691,-5.6953,-5.6957,-5.6987,-5.7035,-5.7032,-5.708,-5.7088,-5.7105,-5.7136,-5.7123,-5.7151,-5.7148,-5.7177,-5.7176,-5.7222,-5.723,-5.7231,-5.7229,-5.723,-5.7229,-5.7237,-5.723,-5.7228,-5.7228,-5.7227,-5.7227,0,-5.6986,-5.6991,-5.7043,-5.7063,-5.7069,-5.7103,-5.7119,-5.7147,-5.7152,-5.7191,-5.72,-5.7207,-5.7241,-5.7242,-5.7281,-5.728,-5.7336,-5.733,-5.7329,-5.7326,-5.7361,-5.7357,-5.748,-5.7495,-5.7394,-5.7395,-5.7396,0,-5.7038,-5.7071,-5.7095,-5.7115,-5.7127,-5.716,-5.718,-5.7179,-5.72,-5.7227,-5.7251,-5.7285,-5.731,-5.7366,-5.7373,-5.7403,-5.7396,-5.7438,-5.74,-5.74,-5.7393,-5.739,-5.7392,-5.7443,-5.7444,-5.7445,-5.7446,0,-5.7127,-5.7129,-5.7158,-5.7189,-5.7213,-5.7237,-5.7259,-5.7277,-5.7279,-5.7303,-5.7338,-5.7359,-5.7399,-5.7432,-5.7461,-5.7472,-5.7458,-5.7459,-5.7468,-5.7467,-5.7463,-5.7463,-5.7345,-5.7455,-5.7454,-5.7453,-5.7453,-5.7452,-5.7191,-5.7219,-5.724,-5.7274,-5.7291,-5.7313,-5.734,-5.735,-5.7379,-5.7412,-5.7411,-5.7449,-5.747,-5.7508,-5.7522,-5.7551,-5.7537,-5.7551,-5.7554,-5.7557,-5.7559,-5.7462,-5.7557,-5.7557,-5.7557,-5.7557,-5.7556,0,-5.7277,-5.729,-5.7322,-5.7354,-5.738,-5.7369,-5.7394,-5.7416,-5.7451,-5.7472,-5.7498,-5.7539,-5.7571,-5.7583,-5.7614,-5.7636,-5.7631,-5.7644,-5.764,-5.7642,-5.7572,-5.7559,-5.7647,-5.7647,-5.7647,-5.7647,-5.7647,-5.7647,-5.7324,-5.7371,-5.7376,-5.7432,-5.7445,-5.7483,-5.7498,-5.7518,-5.7535,-5.7581,-5.7608,-5.7617,-5.7634,-5.7667,-5.7696,-5.7698,-5.7709,-5.7724,-5.7724,-5.7657,-5.7647,-5.7638,-5.7626,-5.7727,-5.7727,-5.7791,-5.7792,-5.7792]},{"header":{"parameterUnit":"m.s-1","parameterCategory":1,"la1":30.2991,"la2":30.254,"lo1":-89.0895,"lo2":-89.0444,"dy":0.0017,"dx":0.0017,"nx":28,"ny":28,"refTime":"2025-01-04T09:00:00:Z","depth":0,"parameterNumber":3,"parameterNumberName":"V-component_of_WINDS"},"data":[0,0,0,0,0,0,0,0,0,0,0,0,0,0,0,0,0,0,0,0,0,0,0,0,0,0,0,0,0,0,0,0,0,0,0,0,0,0,0,0,0,0,0,0,0,0,0,0,0,0,0,0,0,0,0,0,0,0,3.9473,3.9474,0,3.9574,3.9575,3.9576,3.9561,3.9559,3.9557,3.9556,3.9659,3.9664,3.9668,0,0,0,0,0,0,0,0,0,0,0,0,0,3.9269,3.9273,3.9473,3.9474,3.9475,3.9574,3.9575,3.9577,3.9561,3.9559,3.9557,3.9555,3.9658,3.9663,3.9668,0,0,0,0,0,0,0,0,0,0,0,0,0,3.9363,3.9274,3.9472,3.9479,3.9481,3.9574,3.9575,3.9577,3.9562,3.9559,3.9556,3.9554,3.9656,3.9663,3.9669,3.9761,0,0,3.9689,3.9692,0,0,0,0,0,0,0,0,3.9357,3.937,3.9477,3.9479,3.9481,3.9552,3.9541,3.9639,3.9562,3.9531,3.9556,3.9553,3.9626,3.9635,3.9659,3.9766,3.977,3.969,3.9694,3.9696,3.9698,0,0,0,0,0,0,0,3.9351,3.9366,3.9513,3.9479,3.9481,3.9479,3.9489,3.956,3.9592,3.9534,3.9533,3.9545,3.9626,3.9653,3.9662,3.9772,3.9689,3.9695,3.9699,3.9702,3.9965,3.9968,0,0,0,0,0,0,3.9342,3.936,3.9509,3.9516,3.9412,3.9484,3.9496,3.9532,3.9591,3.9597,3.9547,3.9544,3.9643,3.9654,3.9665,3.978,3.9696,3.9702,3.9706,3.9962,3.9966,3.9969,0,0,0,0,0,0,3.9338,3.9356,3.9505,3.9438,3.9457,3.9491,3.9531,3.9535,3.9562,3.9601,3.9607,3.9568,3.9642,3.9656,3.9739,3.9783,3.9705,3.9711,3.9958,3.9963,3.9967,4.0009,0,0,0,0,0,0,3.9332,3.9354,3.9388,3.9439,3.946,3.9576,3.9534,3.9539,3.9573,3.957,3.9622,3.9629,3.9641,3.9729,3.9745,3.9791,3.9716,3.9954,3.996,3.9966,4.0003,4.0014,4.0023,0,0,0,0,0,3.9325,3.9394,3.939,3.9408,3.9504,3.9578,3.9591,3.9603,3.9577,3.9613,3.9639,3.9627,3.9776,3.9738,3.9756,3.9804,3.9952,3.9959,3.9965,3.9999,4.0012,4.0023,0,0,0,0,0,0,3.9346,3.9401,3.9396,3.9484,3.9527,3.9576,3.962,3.9616,3.9667,3.9662,3.9675,3.9687,3.9772,3.9796,3.9752,3.9899,3.986,3.9871,3.988,3.9893,3.9902,3.9895,3.9722,0,0,0,0,0,3.9362,3.9417,3.9462,3.9535,3.9557,3.9586,3.9618,3.9625,3.967,3.9688,3.9719,3.9764,3.9821,3.9858,3.9913,4.0008,4.0021,4.005,4.006,4.0068,4.0077,4.0134,4.0149,3.9992,3.9992,3.9991,0,0,3.9393,3.943,3.9463,3.9541,3.9575,3.9634,3.9601,3.9663,3.9708,3.9697,3.9778,3.9803,3.9854,3.9944,3.9986,3.9967,4.0124,4.0077,4.0083,4.0088,4.0143,4.0158,4.0171,3.9996,3.9996,3.9995,0,0,3.948,3.9513,3.958,3.9616,3.9668,3.9688,3.9704,3.9755,3.9772,3.9853,3.9848,3.9902,3.9999,4.0037,4.0069,4.0178,4.0171,4.0195,4.0247,4.0302,4.0314,4.0326,4.0367,4.0382,4.0205,4.0205,4.0205,0,3.9512,3.96,3.9614,3.968,3.9715,3.9711,3.978,3.9814,3.9882,3.9907,3.9886,4.0012,4.0045,4.0147,4.0174,4.0199,4.022,4.0189,4.0312,4.0323,4.0333,4.0373,4.0389,4.0207,4.0207,4.0207,4.0207,0,3.9639,3.9701,3.9749,3.9817,3.9858,3.9925,3.9951,3.9991,3.9996,4.0018,4.0104,4.0145,4.021,4.0235,4.0238,4.0338,4.0326,4.0308,4.0269,4.0351,4.0389,4.0404,4.0212,4.0211,4.021,4.0209,0,0,3.9739,3.9818,3.9836,3.9869,3.9929,3.9978,4.0046,4.0111,4.0147,4.0196,4.0255,4.0341,4.0326,4.0363,4.0372,4.042,4.0508,4.0397,4.0398,4.0418,4.0625,4.0639,4.0656,4.0504,4.0507,4.051,4.0622,0,3.9834,3.9955,3.9973,4.008,4.014,4.0139,4.0199,4.0244,4.0269,4.0324,4.035,4.0412,4.0387,4.041,4.0457,4.0487,4.055,4.0479,4.0562,4.0564,4.055,4.0676,4.0689,4.0793,4.0636,4.0639,4.0641,0,3.996,4.0015,4.0129,4.0186,4.0212,4.0266,4.0329,4.0381,4.0434,4.0449,4.0493,4.0497,4.0571,4.053,4.0634,4.0586,4.0621,4.0642,4.0646,4.0654,4.0608,4.0689,4.0826,4.0842,4.0664,4.0662,4.066,0,4.0025,4.0127,4.021,4.0237,4.0306,4.0344,4.0375,4.0425,4.0465,4.0521,4.0548,4.0611,4.0646,4.0697,4.072,4.0687,4.0824,4.0783,4.0839,4.0839,4.0867,4.0865,4.1013,4.0889,4.0888,4.0888,4.0888,0,4.013,4.02,4.024,4.0291,4.0372,4.0392,4.0472,4.0501,4.0547,4.0605,4.0608,4.0663,4.069,4.0749,4.0768,4.0853,4.0868,4.0884,4.0888,4.0884,4.0883,4.0908,4.0901,4.0892,4.0891,4.089,4.089,0,4.0215,4.0244,4.0335,4.0394,4.0411,4.0468,4.0519,4.057,4.0596,4.067,4.0688,4.0729,4.08,4.0828,4.0914,4.0927,4.1026,4.1024,4.1009,4.101,4.1066,4.1061,4.1235,4.1261,4.1118,4.1119,4.112,0,4.028,4.0334,4.0401,4.0441,4.0473,4.0537,4.0579,4.0603,4.0646,4.0714,4.0758,4.0829,4.0887,4.1001,4.1039,4.1107,4.1107,4.1164,4.1117,4.1113,4.1111,4.1108,4.1115,4.1172,4.1174,4.1175,4.1176,0,4.0393,4.0407,4.0466,4.0534,4.0584,4.0637,4.069,4.0722,4.0755,4.0804,4.0878,4.0924,4.1014,4.1086,4.1157,4.119,4.119,4.1191,4.1208,4.1205,4.1195,4.1204,4.1034,4.1186,4.1185,4.1184,4.1184,4.1184,4.0472,4.0522,4.0579,4.0647,4.069,4.074,4.0792,4.0826,4.0888,4.0964,4.0975,4.1055,4.1111,4.1206,4.1243,4.1307,4.1292,4.1316,4.1322,4.1328,4.1333,4.1184,4.132,4.1319,4.1319,4.1319,4.1319,0,4.0587,4.0625,4.0688,4.0762,4.0817,4.0814,4.0873,4.0919,4.099,4.1043,4.1101,4.1189,4.126,4.1305,4.1378,4.1421,4.1423,4.144,4.1437,4.1446,4.1341,4.132,4.1437,4.1437,4.1437,4.1437,4.1437,4.1437,4.0654,4.0741,4.0762,4.0871,4.0909,4.0987,4.1022,4.107,4.1113,4.121,4.127,4.13,4.1351,4.1429,4.1495,4.1507,4.1534,4.1552,4.1563,4.1464,4.1452,4.144,4.1421,4.1557,4.1558,4.1663,4.1664,4.1665]}]]